Hourly Weather Perth

Today, 8 August, Saturday

Time Temperature Precipitation Wind Pressure Humidity
00:00 +12°C° 0 mm 5 mps 763 mmHg 56%
01:00 +11°C° 0 mm 6 mps 763 mmHg 56%
02:00 +11°C° 0 mm 6 mps 763 mmHg 56%
03:00 +11°C° 0 mm 6 mps 762 mmHg 57%
04:00 +10°C° 0 mm 6 mps 762 mmHg 58%
05:00 +10°C° 0 mm 6 mps 762 mmHg 58%
06:00 +10°C° 0 mm 7 mps 761 mmHg 58%
07:00 +10°C° 0 mm 7 mps 761 mmHg 58%
08:00 +10°C° 0 mm 9 mps 761 mmHg 58%
09:00 +12°C° 0 mm 8 mps 761 mmHg 55%
10:00 +13°C° 0 mm 8 mps 760 mmHg 52%
11:00 +16°C° 0 mm 8 mps 760 mmHg 49%
12:00 +17°C° 0 mm 8 mps 759 mmHg 48%
13:00 +18°C° 0 mm 8 mps 758 mmHg 48%
14:00 +20°C° 0 mm 8 mps 757 mmHg 47%
15:00 +20°C° 0 mm 7 mps 757 mmHg 49%
16:00 +20°C° 0 mm 6 mps 756 mmHg 51%
17:00 +20°C° 0 mm 6 mps 756 mmHg 53%
18:00 +19°C° 0 mm 6 mps 756 mmHg 50%
19:00 +18°C° 0 mm 7 mps 755 mmHg 48%
20:00 +18°C° 0 mm 7 mps 755 mmHg 45%
21:00 +18°C° 0 mm 7 mps 755 mmHg 43%
22:00 +18°C° 0 mm 8 mps 754 mmHg 42%
23:00 +18°C° 0 mm 8 mps 754 mmHg 40%

Tomorrow, 9 August, Sunday

Time Temperature Precipitation Wind Pressure Humidity
00:00 +20°C° 0 mm 8 mps 753 mmHg 38%
01:00 +20°C° 0 mm 8 mps 752 mmHg 37%
02:00 +20°C° 0 mm 8 mps 751 mmHg 36%
03:00 +18°C° 0.5 mm 8 mps 750 mmHg 46%
04:00 +16°C° 0.5 mm 7 mps 749 mmHg 56%
05:00 +15°C° 0.5 mm 6 mps 749 mmHg 67%
06:00 +13°C° 1.3 mm 8 mps 748 mmHg 71%
07:00 +13°C° 1.3 mm 9 mps 748 mmHg 76%
08:00 +12°C° 1.3 mm 11 mps 748 mmHg 80%
09:00 +13°C° 1.3 mm 11 mps 747 mmHg 82%
10:00 +13°C° 1.3 mm 11 mps 747 mmHg 84%
11:00 +13°C° 1.3 mm 10 mps 747 mmHg 86%
12:00 +13°C° 2.6 mm 9 mps 746 mmHg 83%
13:00 +15°C° 2.6 mm 8 mps 745 mmHg 80%
14:00 +15°C° 2.6 mm 7 mps 745 mmHg 78%
15:00 +15°C° 0.7 mm 7 mps 745 mmHg 76%
16:00 +15°C° 0.7 mm 8 mps 745 mmHg 74%
17:00 +15°C° 0.7 mm 8 mps 745 mmHg 73%
18:00 +15°C° 0.8 mm 8 mps 745 mmHg 73%
19:00 +14°C° 0.8 mm 7 mps 745 mmHg 74%
20:00 +14°C° 0.8 mm 7 mps 745 mmHg 75%
21:00 +14°C° 0.7 mm 7 mps 745 mmHg 77%
22:00 +14°C° 0.7 mm 6 mps 746 mmHg 78%
23:00 +14°C° 0.7 mm 6 mps 746 mmHg 80%

Day after tomorrow, 10 August, Monday

Time Temperature Precipitation Wind Pressure Humidity
00:00 +14°C° 1.2 mm 6 mps 746 mmHg 79%
01:00 +14°C° 1.2 mm 7 mps 746 mmHg 78%
02:00 +14°C° 1.2 mm 7 mps 746 mmHg 77%
03:00 +14°C° 0.9 mm 7 mps 747 mmHg 76%
04:00 +14°C° 0.9 mm 6 mps 747 mmHg 76%
05:00 +13°C° 0.9 mm 6 mps 747 mmHg 76%
06:00 +14°C° 1.2 mm 6 mps 747 mmHg 76%
07:00 +14°C° 1.2 mm 6 mps 747 mmHg 76%
08:00 +14°C° 1.2 mm 6 mps 747 mmHg 77%
09:00 +15°C° 0.9 mm 7 mps 747 mmHg 76%
10:00 +15°C° 0.9 mm 7 mps 748 mmHg 74%
11:00 +16°C° 0.9 mm 8 mps 748 mmHg 73%
12:00 +17°C° 0.5 mm 8 mps 748 mmHg 70%
13:00 +17°C° 0.5 mm 8 mps 747 mmHg 68%
14:00 +18°C° 0.5 mm 8 mps 747 mmHg 65%
15:00 +17°C° 0.3 mm 8 mps 748 mmHg 66%
16:00 +17°C° 0.3 mm 8 mps 748 mmHg 68%
17:00 +16°C° 0.3 mm 7 mps 749 mmHg 69%
18:00 +16°C° 0.2 mm 7 mps 749 mmHg 71%
19:00 +15°C° 0.2 mm 7 mps 750 mmHg 73%
20:00 +15°C° 0.2 mm 7 mps 750 mmHg 74%
21:00 +15°C° 0.2 mm 7 mps 751 mmHg 75%
22:00 +15°C° 0.2 mm 7 mps 751 mmHg 76%
23:00 +15°C° 0.2 mm 8 mps 752 mmHg 77%

11 August, Tuesday

Time Temperature Precipitation Wind Pressure Humidity
00:00 +15°C° 0.3 mm 7 mps 752 mmHg 78%
01:00 +15°C° 0.3 mm 7 mps 752 mmHg 78%
02:00 +15°C° 0.3 mm 7 mps 752 mmHg 78%
03:00 +15°C° 0.2 mm 7 mps 752 mmHg 78%
04:00 +15°C° 0.2 mm 7 mps 753 mmHg 77%
05:00 +15°C° 0.2 mm 6 mps 753 mmHg 77%
06:00 +15°C° 0.1 mm 6 mps 753 mmHg 76%
07:00 +15°C° 0.1 mm 6 mps 754 mmHg 76%
08:00 +15°C° 0.1 mm 6 mps 754 mmHg 75%
09:00 +15°C° 0.1 mm 6 mps 754 mmHg 71%
10:00 +16°C° 0.1 mm 6 mps 755 mmHg 67%
11:00 +17°C° 0.1 mm 7 mps 755 mmHg 64%
12:00 +16°C° 0.1 mm 7 mps 755 mmHg 65%
13:00 +16°C° 0.1 mm 7 mps 755 mmHg 66%
14:00 +16°C° 0.1 mm 6 mps 754 mmHg 68%
15:00 +16°C° 0.2 mm 6 mps 755 mmHg 70%
16:00 +15°C° 0.2 mm 6 mps 755 mmHg 72%
17:00 +15°C° 0.2 mm 5 mps 755 mmHg 74%
18:00 +15°C° 0.2 mm 5 mps 756 mmHg 75%
19:00 +14°C° 0.2 mm 5 mps 756 mmHg 76%
20:00 +14°C° 0.2 mm 4 mps 757 mmHg 77%
21:00 +14°C° 0.2 mm 4 mps 757 mmHg 78%
22:00 +13°C° 0.2 mm 4 mps 757 mmHg 78%
23:00 +13°C° 0.2 mm 3 mps 757 mmHg 79%

12 August, Wednesday

Time Temperature Precipitation Wind Pressure Humidity
00:00 +13°C° 0.2 mm 3 mps 757 mmHg 80%
01:00 +13°C° 0.2 mm 3 mps 757 mmHg 80%
02:00 +13°C° 0.2 mm 3 mps 757 mmHg 81%
03:00 +12°C° 0.1 mm 3 mps 757 mmHg 81%
04:00 +12°C° 0.1 mm 3 mps 758 mmHg 81%
05:00 +12°C° 0.1 mm 3 mps 758 mmHg 81%
06:00 +12°C° 0 mm 3 mps 758 mmHg 80%
07:00 +12°C° 0 mm 3 mps 759 mmHg 78%
08:00 +12°C° 0 mm 3 mps 759 mmHg 77%
09:00 +13°C° 0 mm 4 mps 759 mmHg 73%
10:00 +14°C° 0 mm 4 mps 760 mmHg 68%
11:00 +15°C° 0 mm 5 mps 760 mmHg 64%
12:00 +15°C° 0.1 mm 5 mps 759 mmHg 64%
13:00 +15°C° 0.1 mm 5 mps 759 mmHg 64%
14:00 +15°C° 0.1 mm 5 mps 759 mmHg 65%
15:00 +14°C° 0.1 mm 5 mps 759 mmHg 65%
16:00 +14°C° 0.1 mm 4 mps 759 mmHg 66%
17:00 +13°C° 0.1 mm 4 mps 759 mmHg 67%
18:00 +13°C° 0.1 mm 4 mps 760 mmHg 68%
19:00 +13°C° 0.1 mm 4 mps 760 mmHg 70%
20:00 +12°C° 0.1 mm 3 mps 761 mmHg 72%
21:00 +12°C° 0.1 mm 3 mps 761 mmHg 72%
22:00 +12°C° 0.1 mm 3 mps 761 mmHg 71%
23:00 +13°C° 0.1 mm 2 mps 761 mmHg 71%

13 August, Thursday

Time Temperature Precipitation Wind Pressure Humidity
00:00 +13°C° 0.1 mm 2 mps 761 mmHg 73%
01:00 +13°C° 0.1 mm 2 mps 761 mmHg 74%
02:00 +12°C° 0.1 mm 2 mps 761 mmHg 76%
03:00 +12°C° 0.1 mm 2 mps 761 mmHg 77%
04:00 +12°C° 0.1 mm 2 mps 761 mmHg 78%
05:00 +12°C° 0.1 mm 2 mps 761 mmHg 80%
06:00 +12°C° 0 mm 2 mps 761 mmHg 79%
07:00 +12°C° 0 mm 1 mps 761 mmHg 79%
08:00 +12°C° 0 mm 1 mps 762 mmHg 78%
09:00 +13°C° 0 mm 1 mps 762 mmHg 72%
10:00 +14°C° 0 mm 1 mps 762 mmHg 67%
11:00 +16°C° 0 mm 1 mps 762 mmHg 61%
12:00 +16°C° 0 mm 2 mps 762 mmHg 59%
13:00 +16°C° 0 mm 2 mps 761 mmHg 58%
14:00 +17°C° 0 mm 3 mps 761 mmHg 57%
15:00 +16°C° 0 mm 3 mps 761 mmHg 59%
16:00 +14°C° 0 mm 3 mps 761 mmHg 62%
17:00 +14°C° 0 mm 3 mps 761 mmHg 65%
18:00 +14°C° 0 mm 2 mps 762 mmHg 69%
19:00 +13°C° 0 mm 2 mps 762 mmHg 72%
20:00 +12°C° 0 mm 1 mps 762 mmHg 76%
21:00 +11°C° 0 mm 1 mps 762 mmHg 76%
22:00 +11°C° 0 mm 1 mps 762 mmHg 77%
23:00 +11°C° 0 mm 1 mps 762 mmHg 77%
Show more